User: anonymous   Login
Location: Chagrin Falls Park
(41.4139°N, 81.3865°W)
Time: 01:53:51
(UTC+00:00)
Language:

Envisat - Orbit

View from above orbital plane
View from above orbital plane
View from above satellite
View from above satellite

Ground track
Ground track

The orbit data is extracted from the following two-line orbital elements,

1 27386U 02009A   21265.74144507  .00000036  00000-0  25454-4 0  9998
2 27386  98.1567 254.8638 0001228  85.6441  87.3881 14.38042917 25057
Epoch (UTC): 22 September 2021 17:47:40
Eccentricity: 0.0001228
inclination: 98.1567°
perigee height: 764 km
apogee height: 766 km
right ascension of ascending node: 254.8638°
argument of perigee: 85.6441°
revolutions per day: 14.38042917
mean anomaly at epoch: 87.3881°
orbit number at epoch: 2505

The dashed part of the orbit path shows where the satellite is in the earth's shadow,  

DLR